| time (UTC) | temp F | wind direction | speed MPH | gust MPH | rain 1hr in | rain 24hr in | rain mn in | humidity % | barometer mb |
| 20260507141538 | 60 | 0 | 0.0 | 4.0 | 0.00 | 0.29 | 0.00 | 71 | 1018.5 |
| 20260507140100 | 59 | 0 | 0.0 | 4.0 | 0.00 | 0.29 | 0.00 | 74 | 1018.6 |
| 20260507134544 | 58 | 310 | 1.0 | 6.0 | 0.00 | 0.32 | 0.00 | 77 | 1018.5 |
| 20260507133043 | 57 | 0 | 0.0 | 3.0 | 0.00 | 0.32 | 0.00 | 82 | 1018.4 |
| 20260507131544 | 56 | 342 | 1.0 | 4.0 | 0.00 | 0.32 | 0.00 | 82 | 1018.2 |
| 20260507130050 | 55 | 0 | 0.0 | 3.0 | 0.00 | 0.32 | 0.00 | 87 | 1018.3 |
| 20260507124540 | 53 | 24 | 0.0 | 3.0 | 0.00 | 0.32 | 0.00 | 89 | 1018.1 |
| 20260507123046 | 52 | 288 | 0.0 | 4.0 | 0.00 | 0.32 | 0.00 | 92 | 1017.9 |
| 20260507121545 | 50 | 0 | 0.0 | 2.0 | 0.00 | 0.32 | 0.00 | 94 | 1017.8 |
| 20260507120042 | 49 | 5 | 0.0 | 3.0 | 0.00 | 0.32 | 0.00 | 94 | 1017.3 |
| 20260507114556 | 49 | 0 | 0.0 | 0.0 | 0.00 | 0.32 | 0.00 | 93 | 1017.3 |
| 20260507113048 | 49 | 0 | 0.0 | 0.0 | 0.00 | 0.32 | 0.00 | 93 | 1017.1 |
| 20260507111544 | 49 | 0 | 0.0 | 0.0 | 0.00 | 0.32 | 0.00 | 93 | 1017.1 |
| 20260507110051 | 49 | 349 | 0.0 | 0.0 | 0.00 | 0.32 | 0.00 | 93 | 1017.1 |
| 20260507104544 | 49 | 0 | 0.0 | 1.0 | 0.00 | 0.48 | 0.00 | 92 | 1016.6 |
| 20260507103042 | 49 | 0 | 0.0 | 1.0 | 0.00 | 0.48 | 0.00 | 92 | 1017.0 |
| 20260507101558 | 49 | 0 | 0.0 | 0.0 | 0.00 | 0.48 | 0.00 | 92 | 1016.8 |
| 20260507100048 | 50 | 0 | 0.0 | 1.0 | 0.00 | 0.48 | 0.00 | 92 | 1016.8 |
| 20260507094551 | 50 | 0 | 0.0 | 3.0 | 0.00 | 0.60 | 0.00 | 92 | 1017.0 |
| 20260507093046 | 50 | 0 | 0.0 | 1.0 | 0.00 | 0.60 | 0.00 | 92 | 1016.6 |
| 20260507091555 | 50 | 0 | 0.0 | 1.0 | 0.00 | 0.60 | 0.00 | 92 | 1016.6 |
| 20260507084542 | 51 | 0 | 0.0 | 1.0 | 0.00 | 0.89 | 0.00 | 92 | 1016.4 |
| 20260507083042 | 51 | 0 | 0.0 | 1.0 | 0.00 | 0.89 | 0.00 | 92 | 1016.2 |
| 20260507081554 | 51 | 0 | 0.0 | 2.0 | 0.00 | 0.89 | 0.00 | 92 | 1016.0 |
| 20260507080044 | 51 | 0 | 0.0 | 0.0 | 0.00 | 0.89 | 0.00 | 92 | 1016.4 |
| 20260507074544 | 51 | 0 | 0.0 | 0.0 | 0.00 | 0.97 | 0.00 | 92 | 1016.5 |
| 20260507073056 | 51 | 0 | 0.0 | 0.0 | 0.00 | 0.97 | 0.00 | 92 | 1016.5 |
| 20260507071545 | 52 | 0 | 0.0 | 1.0 | 0.00 | 0.97 | 0.00 | 92 | 1016.4 |
| 20260507070110 | 52 | 0 | 0.0 | 1.0 | 0.00 | 0.97 | 0.00 | 92 | 1016.4 |
| 20260507064548 | 52 | 0 | 0.0 | 0.0 | 0.00 | 1.05 | 0.00 | 92 | 1016.6 |
| 20260507063040 | 52 | 0 | 0.0 | 2.0 | 0.00 | 1.05 | 0.00 | 92 | 1016.5 |
| 20260507061547 | 52 | 0 | 0.0 | 0.0 | 0.00 | 1.05 | 0.00 | 91 | 1016.7 |
| 20260507060047 | 52 | 0 | 0.0 | 1.0 | 0.00 | 1.05 | 0.00 | 91 | 1016.5 |
| 20260507054550 | 52 | 0 | 0.0 | 3.0 | 0.00 | 1.05 | 0.00 | 92 | 1016.5 |
| 20260507053046 | 52 | 0 | 0.0 | 1.0 | 0.00 | 1.05 | 0.00 | 92 | 1016.4 |
| 20260507051542 | 52 | 0 | 0.0 | 3.0 | 0.00 | 1.05 | 0.00 | 92 | 1016.3 |
| 20260507050041 | 52 | 343 | 0.0 | 3.0 | 0.00 | 1.05 | 0.00 | 92 | 1015.9 |
| 20260507044546 | 52 | 344 | 0.0 | 3.0 | 0.00 | 1.05 | 1.05 | 92 | 1015.9 |
| 20260507043043 | 52 | 0 | 0.0 | 1.0 | 0.00 | 1.05 | 1.05 | 92 | 1016.2 |
| 20260507041542 | 52 | 0 | 0.0 | 1.0 | 0.00 | 1.05 | 1.05 | 92 | 1016.3 |
| 20260507040041 | 52 | 0 | 0.0 | 2.0 | 0.00 | 1.05 | 1.05 | 92 | 1016.2 |
| 20260507034545 | 52 | 0 | 0.0 | 0.0 | 0.00 | 1.05 | 1.05 | 92 | 1016.3 |
| 20260507033041 | 52 | 0 | 0.0 | 1.0 | 0.00 | 1.05 | 1.05 | 91 | 1016.9 |
| 20260507031546 | 52 | 0 | 0.0 | 2.0 | 0.00 | 1.05 | 1.05 | 91 | 1016.6 |
| 20260507030043 | 52 | 0 | 0.0 | 3.0 | 0.00 | 1.05 | 1.05 | 91 | 1016.7 |
| 20260507024543 | 52 | 0 | 0.0 | 3.0 | 0.00 | 1.05 | 1.05 | 91 | 1016.3 |
| 20260507023041 | 52 | 0 | 0.0 | 3.0 | 0.00 | 1.05 | 1.05 | 91 | 1015.7 |
| 20260507021602 | 52 | 352 | 1.0 | 4.0 | 0.00 | 1.05 | 1.05 | 91 | 1015.6 |
| 20260507020048 | 52 | 348 | 0.0 | 3.0 | 0.00 | 1.05 | 1.05 | 91 | 1015.7 |
| 20260507014553 | 52 | 0 | 0.0 | 3.0 | 0.00 | 1.05 | 1.05 | 91 | 1015.4 |
| 20260507013053 | 52 | 335 | 0.0 | 4.0 | 0.00 | 1.05 | 1.05 | 91 | 1015.6 |
| 20260507011548 | 52 | 0 | 1.0 | 4.0 | 0.00 | 1.05 | 1.05 | 91 | 1015.0 |
| 20260507010100 | 52 | 76 | 1.0 | 5.0 | 0.00 | 1.05 | 1.05 | 91 | 1015.0 |
| 20260507004547 | 53 | 28 | 0.0 | 3.0 | 0.00 | 1.05 | 1.05 | 91 | 1015.1 |
| 20260507003044 | 53 | 0 | 0.0 | 4.0 | 0.00 | 1.05 | 1.05 | 91 | 1015.4 |
| 20260507001541 | 53 | 0 | 0.0 | 3.0 | 0.00 | 1.05 | 1.05 | 91 | 1015.7 |
| 20260507000043 | 53 | 342 | 0.0 | 4.0 | 0.00 | 1.05 | 1.05 | 91 | 1015.6 |
| 20260506234548 | 53 | 0 | 1.0 | 3.0 | 0.00 | 1.05 | 1.05 | 91 | 1015.1 |
| 20260506233049 | 53 | 5 | 1.0 | 3.0 | 0.00 | 1.05 | 1.05 | 91 | 1015.5 |
| 20260506231546 | 53 | 0 | 0.0 | 5.0 | 0.00 | 1.05 | 1.05 | 91 | 1015.1 |
| 20260506230044 | 53 | 0 | 0.0 | 5.0 | 0.00 | 1.05 | 1.05 | 91 | 1015.3 |
| 20260506224542 | 53 | 0 | 0.0 | 4.0 | 0.00 | 1.05 | 1.05 | 91 | 1014.9 |
| 20260506223040 | 53 | 0 | 1.0 | 8.0 | 0.00 | 1.05 | 1.05 | 90 | 1014.4 |
| 20260506221548 | 53 | 0 | 1.0 | 5.0 | 0.00 | 1.05 | 1.05 | 90 | 1013.9 |
| 20260506220042 | 53 | 330 | 1.0 | 9.0 | 0.00 | 1.05 | 1.05 | 90 | 1013.9 |
| 20260506214547 | 54 | 22 | 3.0 | 9.0 | 0.01 | 1.06 | 1.05 | 90 | 1014.1 |
| 20260506213043 | 54 | 0 | 1.0 | 4.0 | 0.01 | 1.06 | 1.05 | 91 | 1014.3 |
| 20260506211544 | 54 | 5 | 0.0 | 5.0 | 0.01 | 1.05 | 1.04 | 91 | 1014.5 |
| 20260506210044 | 53 | 352 | 0.0 | 3.0 | 0.03 | 1.05 | 1.04 | 91 | 1015.4 |
| 20260506204541 | 54 | 15 | 1.0 | 5.0 | 0.03 | 1.05 | 1.03 | 91 | 1015.2 |
| 20260506203048 | 54 | 0 | 0.0 | 4.0 | 0.03 | 1.05 | 1.03 | 91 | 1015.1 |
| 20260506201607 | 53 | 61 | 0.0 | 3.0 | 0.02 | 1.03 | 1.02 | 90 | 1015.1 |
| 20260506200043 | 54 | 150 | 0.0 | 5.0 | 0.00 | 1.02 | 1.00 | 90 | 1015.9 |
| 20260506194549 | 54 | 278 | 1.0 | 3.0 | 0.00 | 1.01 | 1.00 | 89 | 1016.3 |
| 20260506193045 | 54 | 0 | 0.0 | 4.0 | 0.00 | 1.01 | 1.00 | 90 | 1015.9 |
| 20260506191547 | 54 | 0 | 0.0 | 4.0 | 0.00 | 1.01 | 1.00 | 91 | 1016.2 |
| 20260506190040 | 54 | 0 | 0.0 | 3.0 | 0.00 | 1.01 | 1.00 | 90 | 1016.1 |
| 20260506184553 | 54 | 0 | 0.0 | 5.0 | 0.00 | 1.01 | 1.00 | 91 | 1015.7 |
| 20260506183041 | 53 | 339 | 1.0 | 5.0 | 0.00 | 1.01 | 1.00 | 91 | 1015.5 |
| 20260506181541 | 53 | 352 | 0.0 | 7.0 | 0.00 | 1.01 | 1.00 | 92 | 1015.4 |
| 20260506180040 | 53 | 30 | 1.0 | 4.0 | 0.00 | 1.01 | 1.00 | 93 | 1015.3 |
| 20260506174545 | 53 | 0 | 1.0 | 6.0 | 0.00 | 1.01 | 1.00 | 93 | 1015.4 |
| 20260506173054 | 52 | 17 | 1.0 | 5.0 | 0.01 | 1.01 | 1.00 | 93 | 1015.4 |
| 20260506171553 | 52 | 284 | 1.0 | 5.0 | 0.03 | 1.01 | 1.00 | 93 | 1015.4 |
| 20260506170044 | 52 | 340 | 1.0 | 5.0 | 0.05 | 1.00 | 0.99 | 93 | 1015.5 |
| 20260506164547 | 52 | 0 | 0.0 | 4.0 | 0.06 | 1.09 | 0.99 | 94 | 1015.7 |
| 20260506163101 | 51 | 259 | 1.0 | 4.0 | 0.06 | 1.08 | 0.98 | 94 | 1016.1 |
| 20260506161548 | 51 | 0 | 0.0 | 5.0 | 0.07 | 1.06 | 0.96 | 93 | 1015.2 |
| 20260506160046 | 51 | 0 | 0.0 | 8.0 | 0.08 | 1.03 | 0.93 | 94 | 1015.2 |
| 20260506154555 | 51 | 340 | 2.0 | 8.0 | 0.07 | 1.44 | 0.92 | 93 | 1014.8 |
| 20260506153042 | 51 | 132 | 0.0 | 4.0 | 0.09 | 1.44 | 0.92 | 94 | 1014.9 |
| 20260506151549 | 51 | 158 | 1.0 | 5.0 | 0.08 | 1.40 | 0.88 | 93 | 1014.3 |
| 20260506150048 | 51 | 0 | 1.0 | 5.0 | 0.08 | 1.37 | 0.85 | 94 | 1014.7 |
| 20260506144548 | 51 | 325 | 0.0 | 4.0 | 0.11 | 1.68 | 0.85 | 94 | 1014.6 |
| 20260506143045 | 51 | 66 | 0.0 | 4.0 | 0.09 | 1.66 | 0.82 | 93 | 1014.7 |